Weather in Chastova

Russia / Novgorod Oblast     58°36′42″N   32°04′20″E
В апреле 2022 года жителям России запретили посещать сайт meteo.paraplan.net по решению Генеральной прокуратуры. Аудитория сайта уменьшилась в 10 раз. Владельцы сайта не видят смысла в поддержке погодного сервера в таких условиях. Сайт будет закрыт в октябре.
temp.,
°C
wind,
m/s
gust,
m/s
humid.,
%
clouds,
%
prec.,
mm/h
press.,
hPa
HPBL,
m
29 september, thu
thu2900:00+6ne2595100 0.4 1004237
03:00+6ene2496100 0.7 1004288
06:00+6e1397100 0.0 1004107
09:00+7ese1392100 0.0 1004200
12:00+10s2378100 0.4 1005713
15:00+11s2475100 0.9 1005842
18:00+9sse2685100 0.2 1006269
21:00+7se399575 0.2 1007242
30 september, fri
fri3000:00+8se379645 0.3 1007340
03:00+7s279974 0.4 1008206
06:00+8ssw3792100 0.0 1008471
09:00+9ssw269099 0.0 1010629
12:00+10sw3680100 0.0 1011800
15:00+12ssw367374 0.1 1011996
18:00+9wsw37878 0.8 1013338
21:00+9sw2787100 0.8 1014241
1 october, sat
sat100:00+9sw3883100 0.0 1015355
03:00+6sw26945 0.0 1016154
06:00+5ssw25974 0.0 1017113
09:00+7sw24880 0.0 1017206
12:00+11sw23675 0.0 1016684
15:00+13sw1157100 0.0 1015959
18:00+9ene1173100 0.0 101410
21:00+7ne228499 0.0 101339
2 october, sun
sun200:00+6ne249127 0.0 101290
03:00+5nne269524 0.0 1011116
06:00+4nne269693 0.0 1011121
09:00+6nne25802 0.0 1011186
12:00+11nne24584 0.0 1011832
15:00+12nne345221 0.0 10111197
18:00+8nne2272100 0.0 101131
21:00+6ne2482100 0.0 101281
3 october, mon
mon300:00+6ne2585100 0.0 1012118
03:00+6ene2584100 0.0 1012132
06:00+6ene2581100 0.0 1012164
09:00+7ene2875100 0.0 1012366
12:00+10ene3555100 0.0 10111268
15:00+7ne51384100 1.7 1009800
18:00+6ne71691100 5.5 1007873
21:00+6ne71693100 11.3 1006939